Weather History for KDNS - November, 2012

Change the Weather History Date:

Thursday, November 22, 2012

  Actual Average Record
Temperature  
Mean Temperature 46 °F -  
Max Temperature 59 °F 44 °F 64 °F (1998)
Min Temperature 33 °F 26 °F 8 °F (2013)
Degree Days  
Heating Degree Days 19    
Moisture  
Dew Point 37 °F    
Average Humidity 66    
Maximum Humidity 87    
Minimum Humidity 41    
Precipitation  
Precipitation 0.00 in - - ()
Sea Level Pressure  
Sea Level Pressure 29.90 in    
Wind  
Wind Speed 14 mph (West)    
Max Wind Speed 32 mph    
Max Gust Speed 43 mph    
Visibility 10 miles    
Events      
Averages and records for this station are not official NWS values.
T = Trace of Precipitation, MM = Missing Value Source: NWS Daily Summary

Daily Weather History Graph

Daily Weather History Graph

Search for Another Location

Airport or City:

Trip Planner

Search our weather history database for the weather conditions in past years. The results will help you decide how hot, cold, wet, or windy it might be!

Date:

Astronomy

Nov. 22, 2012 Rise Set
Actual Time 7:20 AM CST 4:54 PM CST
Civil Twilight 6:49 AM CST 5:25 PM CST
Nautical Twilight 6:15 AM CST 5:59 PM CST
Astronomical Twilight 5:42 AM CST 6:32 PM CST
Moon 1:45 PM CST (11/22) 1:36 AM CST (11/22)
Length of Visible Light 10h 35m
Length of Day
9h 34m
Waxing Gibbous, 71% of the Moon is Illuminated
Nov 22
Waxing Gibbous
Nov 28
Full
Dec 6
Last Quarter
Dec 13
New
Dec 19
First Quarter

Hourly Weather History & Observations

Time (CST) Temp. Windchill Dew Point Humidity Pressure Visibility Wind Dir Wind Speed Gust Speed Precip Events Conditions
12:15 AM 53.6 °F - 42.8 °F 67% 29.79 in 10.0 mi SSW 11.5 mph 18.4 mph N/A   Scattered Clouds
12:35 AM 53.6 °F - 42.8 °F 67% 29.79 in 10.0 mi SSW 13.8 mph - N/A   Partly Cloudy
12:55 AM 53.6 °F - 41.0 °F 62% 29.78 in 10.0 mi SSW 12.7 mph - N/A   Partly Cloudy
1:15 AM 53.6 °F - 41.0 °F 62% 29.78 in 10.0 mi SSW 13.8 mph - N/A   Partly Cloudy
1:35 AM 53.6 °F - 41.0 °F 62% 29.77 in 10.0 mi SSW 13.8 mph 19.6 mph N/A   Partly Cloudy
1:55 AM 51.8 °F - 41.0 °F 67% 29.77 in 10.0 mi SSW 15.0 mph - N/A   Partly Cloudy
2:15 AM 51.8 °F - 41.0 °F 67% 29.76 in 10.0 mi SSW 13.8 mph 20.7 mph N/A   Partly Cloudy
2:35 AM 51.8 °F - 41.0 °F 67% 29.76 in 10.0 mi South 15.0 mph - N/A   Partly Cloudy
2:55 AM 51.8 °F - 41.0 °F 67% 29.76 in 10.0 mi South 10.4 mph 17.3 mph N/A   Clear
3:15 AM 50.0 °F - 41.0 °F 71% 29.75 in 10.0 mi SSW 10.4 mph - N/A   Clear
3:35 AM 50.0 °F - 41.0 °F 71% 29.74 in 10.0 mi South 12.7 mph 18.4 mph N/A   Clear
3:55 AM 50.0 °F - 41.0 °F 71% 29.73 in - SSW 9.2 mph - N/A   Clear
4:15 AM 48.2 °F - 41.0 °F 76% 29.74 in 10.0 mi SSW 8.1 mph - N/A   Clear
4:35 AM 48.2 °F - 41.0 °F 76% 29.73 in 10.0 mi South 10.4 mph - N/A   Clear
4:55 AM 50.0 °F - 41.0 °F 71% 29.72 in 10.0 mi SSW 10.4 mph 16.1 mph N/A   Clear
5:15 AM 50.0 °F - 41.0 °F 71% 29.72 in 10.0 mi SSW 10.4 mph 20.7 mph N/A   Clear
5:35 AM 50.0 °F - 41.0 °F 71% 29.72 in 10.0 mi SSW 6.9 mph - N/A   Clear
5:55 AM 48.2 °F - 41.0 °F 76% 29.71 in 10.0 mi SSW 9.2 mph 16.1 mph N/A   Clear
6:15 AM 48.2 °F - 41.0 °F 76% 29.72 in 10.0 mi SSW 6.9 mph - N/A   Clear
6:35 AM 48.2 °F - 41.0 °F 76% 29.73 in 10.0 mi SSW 9.2 mph - N/A   Clear
7:15 AM 46.4 °F 42.4 °F 41.0 °F 81% 29.73 in 10.0 mi SSW 8.1 mph - N/A   Clear
7:55 AM 46.4 °F 42.4 °F 41.0 °F 81% 29.73 in 10.0 mi SSW 8.1 mph - N/A   Clear
8:15 AM 46.4 °F 42.4 °F 42.8 °F 87% 29.73 in 10.0 mi SSW 8.1 mph - N/A   Clear
8:35 AM 48.2 °F - 42.8 °F 82% 29.73 in 10.0 mi SSW 5.8 mph - N/A   Clear
8:55 AM 50.0 °F - 44.6 °F 82% 29.74 in 10.0 mi SW 8.1 mph - N/A   Clear
9:15 AM 51.8 °F - 44.6 °F 76% 29.75 in 10.0 mi SW 11.5 mph - N/A   Clear
9:55 AM 55.4 °F - 42.8 °F 63% 29.75 in 10.0 mi West 10.4 mph - N/A   Clear
10:15 AM 57.2 °F - 35.6 °F 44% 29.76 in 10.0 mi WNW 15.0 mph - N/A   Clear
10:35 AM 57.2 °F - 35.6 °F 44% 29.76 in 10.0 mi West 11.5 mph - N/A   Clear
10:55 AM 57.2 °F - 33.8 °F 41% 29.78 in 10.0 mi West 15.0 mph - N/A   Clear
11:15 AM 57.2 °F - 35.6 °F 44% 29.79 in 10.0 mi WNW 17.3 mph - N/A   Clear
11:35 AM 55.4 °F - 35.6 °F 47% 29.80 in 10.0 mi WNW 18.4 mph 26.5 mph N/A   Clear
11:55 AM 57.2 °F - 35.6 °F 44% 29.81 in 10.0 mi NW 17.3 mph 26.5 mph N/A   Clear
12:15 PM 57.2 °F - 37.4 °F 48% 29.82 in 10.0 mi NW 18.4 mph 28.8 mph N/A   Clear
12:35 PM 59.0 °F - 39.2 °F 48% 29.83 in 10.0 mi NW 18.4 mph 31.1 mph N/A   Clear
12:55 PM 57.2 °F - 39.2 °F 51% 29.84 in 10.0 mi NW 25.3 mph 35.7 mph N/A   Clear
1:15 PM 57.2 °F - 37.4 °F 48% 29.85 in 10.0 mi NW 27.6 mph 40.3 mph N/A   Clear
1:35 PM 55.4 °F - 37.4 °F 51% 29.86 in 10.0 mi NW 29.9 mph 42.6 mph N/A   Clear
1:55 PM 55.4 °F - 37.4 °F 51% 29.88 in 10.0 mi NW 29.9 mph 36.8 mph N/A   Clear
2:15 PM 51.8 °F - 35.6 °F 54% 29.90 in 10.0 mi NW 27.6 mph 38.0 mph N/A   Clear
2:35 PM 51.8 °F - 35.6 °F 54% 29.92 in 10.0 mi NW 26.5 mph 36.8 mph N/A   Clear
2:55 PM 51.8 °F - 35.6 °F 54% 29.93 in 10.0 mi NW 25.3 mph 35.7 mph N/A   Clear
3:15 PM 50.0 °F - 35.6 °F 58% 29.95 in 10.0 mi NNW 23.0 mph 39.1 mph N/A   Clear
3:35 PM 51.8 °F - 35.6 °F 54% 29.96 in 10.0 mi NW 21.9 mph 38.0 mph N/A   Clear
3:55 PM 50.0 °F - 33.8 °F 54% 29.99 in 10.0 mi NW 32.2 mph 40.3 mph N/A   Clear
4:15 PM 46.4 °F 37.5 °F 33.8 °F 62% 30.01 in 10.0 mi NW 27.6 mph 35.7 mph N/A   Clear
4:35 PM 44.6 °F 35.9 °F 33.8 °F 66% 30.03 in 10.0 mi NW 23.0 mph 35.7 mph N/A   Clear
4:55 PM 44.6 °F 36.6 °F 33.8 °F 66% 30.04 in 10.0 mi NW 19.6 mph 28.8 mph N/A   Partly Cloudy
5:15 PM 44.6 °F 36.9 °F 33.8 °F 66% 30.05 in 10.0 mi NW 18.4 mph 25.3 mph N/A   Partly Cloudy
5:35 PM 42.8 °F 35.4 °F 33.8 °F 70% 30.06 in 10.0 mi NW 15.0 mph - N/A   Clear
5:55 PM 42.8 °F 36.6 °F 33.8 °F 70% 30.08 in 10.0 mi NW 11.5 mph 23.0 mph N/A   Clear
6:15 PM 41.0 °F 34.7 °F 33.8 °F 76% 30.09 in 10.0 mi NW 10.4 mph - N/A   Clear
6:35 PM 41.0 °F 34.3 °F 33.8 °F 76% 30.10 in 10.0 mi NW 11.5 mph - N/A   Clear
6:55 PM 41.0 °F 34.3 °F 33.8 °F 76% 30.11 in 10.0 mi NW 11.5 mph - N/A   Clear
7:55 PM 39.2 °F 31.2 °F 32.0 °F 75% 30.13 in 10.0 mi NW 13.8 mph - N/A   Clear
8:15 PM 39.2 °F 31.2 °F 32.0 °F 75% 30.15 in 10.0 mi NW 13.8 mph - N/A   Clear
8:35 PM 39.2 °F 31.6 °F 32.0 °F 75% 30.16 in 10.0 mi NW 12.7 mph 19.6 mph N/A   Clear
8:55 PM 37.4 °F 29.3 °F 32.0 °F 81% 30.16 in 10.0 mi NW 12.7 mph - N/A   Clear
9:15 PM 37.4 °F 28.5 °F 30.2 °F 75% 30.16 in 10.0 mi NW 15.0 mph 20.7 mph N/A   Clear
9:35 PM 37.4 °F 29.8 °F 30.2 °F 75% 30.17 in 10.0 mi WNW 11.5 mph 17.3 mph N/A   Clear
9:55 PM 35.6 °F 27.5 °F 28.4 °F 75% 30.17 in 10.0 mi NW 11.5 mph - N/A   Clear
10:15 PM 33.8 °F 27.0 °F 28.4 °F 81% 30.17 in 10.0 mi NW 8.1 mph - N/A   Clear
10:35 PM 33.8 °F 26.4 °F 28.4 °F 81% 30.18 in 10.0 mi WNW 9.2 mph - N/A   Clear
10:55 PM 35.6 °F 27.5 °F 24.8 °F 65% 30.18 in 10.0 mi WNW 11.5 mph 19.6 mph N/A   Mostly Cloudy
11:15 PM 33.8 °F 24.8 °F 24.8 °F 70% 30.19 in 10.0 mi WNW 12.7 mph 21.9 mph N/A   Overcast
11:35 PM 35.6 °F 26.2 °F 23.0 °F 60% 30.20 in 10.0 mi NW 15.0 mph 21.9 mph N/A   Overcast
11:55 PM 35.6 °F 24.2 °F 21.2 °F 56% 30.20 in 10.0 mi NW 21.9 mph 31.1 mph N/A   Overcast